Vertical_Velocity
1 -0 2 1 4 3 -8 -1 0 0 -3 0 -1 -1 1 -2 -3 1 -1 -3 2 0 4 -2 2 2 0 0 -2 3 0 1 2 2 2 -2 2 -2 2 -1 -3 -5 -2 -1 2 3 -3 1 -4 3 9 -5 2 0
-2 -2 0 -1 2 10 -9 0 -1 -0 -0 1 -3 -1 -1 0 -3 -1 -4 5 6 -1 3 -1 -1 0 -3 -2 -5 2 -0 -1 -2 2 2 2 1 2 -0 1 1 3 -5 -3 -4 -7 -0 1 2 2 0 2 1 0
-5 -1 2 1 -1 8 -11 4 5 -1 -4 4 -3 -1 1 -1 -2 -3 -6 0 1 1 1 -1 3 -3 1 0 -1 -5 -0 -2 -1 0 1 -1 3 2 1 -5 1 1 -0 1 4 -0 0 0 2 -1 0 1 1 0
-7 2 -2 7 -3 4 -8 3 3 0 -5 5 -3 1 -3 -3 2 -0 -0 -0 -2 -1 3 2 -3 -1 -1 -0 1 1 1 2 -0 1 1 1 3 1 1 4 3 4 3 -1 -5 -4 0 -1 -1 -1 -0 1 1 1
-4 2 -1 5 -1 2 -9 4 7 1 -3 4 -3 2 -3 -3 -2 0 -2 1 -2 -2 3 -0 0 -0 -0 -0 2 1 2 4 0 3 1 -1 -0 4 -0 2 -0 -3 -4 2 -2 2 2 2 1 -1 -0 1 1 -1
1 -2 0 6 -3 1 -3 0 5 -1 -1 4 -2 0 -2 -1 -3 -0 5 2 1 0 2 2 -0 1 0 1 0 -0 3 -2 -2 -0 -2 -2 0 3 2 0 -5 -1 0 1 -2 -1 -1 -2 -1 -1 -1 1 1 -3
0 -2 2 4 -4 -3 -1 1 7 1 0 4 2 -1 -1 -3 -2 0 3 0 -0 0 1 -2 0 -1 -1 -1 -1 0 5 -2 3 -1 1 1 1 -1 2 0 -5 1 -1 -1 0 -1 2 -1 1 0 0 0 -1 2
-3 4 3 3 -5 -5 2 0 3 3 4 2 3 -1 2 0 -2 -2 3 0 -1 -1 3 1 -2 2 -1 1 2 0 1 1 -1 -0 1 0 2 1 0 -8 -3 -1 4 -1 1 1 2 -0 0 -1 -0 -1 -2 -0
-3 5 1 5 -6 -2 6 1 2 2 3 3 1 -0 0 -0 -2 -0 -5 0 -0 2 2 0 1 1 -2 -1 -1 1 0 2 -0 0 0 1 0 -2 -8 -0 1 -0 -2 2 1 0 2 3 -0 -0 9 -4 -1 1
2 1 2 -1 -4 3 4 -1 2 0 2 2 3 1 -0 -3 3 -1 2 1 0 -2 1 0 -1 2 -1 -0 -0 1 -0 1 0 1 -1 2 -4 -9 -2 5 -0 1 0 1 -1 1 2 1 -1 -2 2 1 2 4
0 -0 6 -4 -6 6 3 -1 -0 -5 4 0 0 -2 1 -4 -2 -0 -1 1 1 -0 2 0 -1 2 -2 2 1 -0 -0 -0 1 2 3 -1 -2 -0 0 -1 0 2 1 -1 -0 1 3 1 -6 -2 -3 -2 -1 0
-3 -1 5 -9 2 3 -4 1 -1 -9 4 -3 1 -5 -2 2 0 -2 0 -0 1 1 0 2 2 0 1 -0 1 -0 1 0 0 1 2 -0 -3 0 -1 -0 1 1 1 2 2 3 2 0 -1 2 -1 -2 -0 -1
-3 3 1 -1 9 5 -1 2 -1 -8 5 -1 0 1 -1 -1 2 1 0 2 1 -1 -1 -2 -0 1 -1 -0 0 1 1 -0 0 1 -2 -3 -0 0 -0 -0 1 1 0 1 1 1 1 2 3 0 -2 0 1 -1
1 2 -2 -2 4 1 -3 6 -2 -6 4 -0 -0 -0 1 2 1 0 0 1 2 -1 0 1 -0 1 -0 0 0 2 -0 2 1 1 -4 -0 3 1 2 1 0 1 1 -0 -0 0 1 2 2 2 4 4 -1 -2
-4 3 1 3 1 4 -2 1 2 -6 -1 -0 -1 -0 0 1 -1 -1 -1 -1 1 -0 -0 -0 0 1 -0 0 0 0 2 -1 -1 -2 2 2 1 1 0 1 1 2 2 1 -0 -0 1 2 2 1 2 3 2 0
-3 2 3 3 -1 4 -5 4 1 -6 -2 0 -1 1 1 -0 2 1 0 -0 0 -1 -0 1 0 0 -1 -0 2 -2 2 -2 2 1 1 -1 -1 -0 1 1 1 1 2 1 2 1 -0 -1 0 2 1 2 2 2
-4 2 2 0 -2 4 -8 7 1 -2 2 1 1 -3 -0 -2 -1 0 -1 -0 -3 -0 1 0 2 -3 1 1 1 -1 -1 1 1 -1 0 -0 1 1 0 -0 2 2 1 2 2 2 2 2 -1 0 -2 -1 2 2
-7 2 -0 2 1 2 -6 3 0 -2 1 0 -0 0 -2 -1 -1 0 1 1 -2 -0 -0 1 2 2 -0 0 0 2 -0 -1 1 2 0 2 1 0 1 -1 -0 1 3 1 0 1 2 1 1 -1 1 -1 -1 1
-2 0 -2 6 2 -3 -1 3 -0 -1 -1 -0 -1 1 -0 -0 -0 -1 -2 -1 -2 -3 -0 1 3 -0 -0 1 1 -0 -1 1 -2 -5 -4 1 2 -0 1 1 -1 -1 0 1 2 2 3 6 1 1 1 1 -1 -1
5 -7 0 7 -0 -3 1 1 1 -0 0 2 -2 -1 1 -0 -0 -1 -1 -1 0 0 2 1 -1 1 -0 -1 -1 -1 -0 1 -1 -4 -2 2 1 -0 -1 1 1 -0 -1 0 0 1 1 1 2 4 2 -1 -2 -5
1 -3 -0 5 -1 -2 2 1 -0 -1 0 0 -0 -1 -0 1 -0 0 2 2 2 -1 -0 1 -0 -1 -1 -0 -0 -1 1 1 -1 1 -3 -9 -2 -0 -1 -1 -0 1 0 -0 -1 0 1 1 1 2 3 -0 -0 1
-6 -0 3 2 -0 -1 1 1 1 -1 -1 1 0 -1 0 1 0 2 -2 0 -1 -0 -2 -1 -2 -3 -1 -0 -1 1 -1 -0 -0 -1 0 1 -2 -1 -1 2 -3 -1 1 2 2 0 -0 -0 4 3 1 -2 1 1
-0 2 1 1 -2 0 -2 -0 2 -1 1 -0 -0 1 0 -0 0 1 0 -2 -1 -2 -1 -2 -2 -2 -4 -1 -3 -0 0 -1 -2 -1 -0 -1 -1 -0 -0 -0 2 -2 -4 1 2 -1 3 1 -1 4 3 1 -1 -0
3 -6 -0 0 2 0 0 1 1 0 -0 1 1 0 0 0 -1 2 -1 -1 -1 -1 -2 -2 -3 -4 -2 -2 -3 -2 -1 -1 -1 -1 1 1 -1 -0 -0 2 -1 3 -3 -0 3 2 3 3 3 0 0 3 1 -0
-6 -1 -1 0 1 0 2 2 1 2 -0 -0 1 0 1 -0 1 1 -1 -1 -1 -2 -2 -2 -2 -1 -3 -4 -1 -1 -1 -1 -1 -3 1 1 0 1 -1 4 2 1 2 -3 2 2 1 2 3 1 2 1 -2 -1
1 -1 -1 -3 1 1 -2 -0 -0 -2 -0 1 -1 0 -1 1 1 -3 -2 -2 -4 -4 -2 -2 -1 -2 -2 -0 -4 -3 1 1 -0 -5 -0 -0 1 3 0 -1 -0 -2 7 -5 3 2 4 3 -1 3 0 -0 7 1
1 0 0 -0 1 -1 1 0 0 -0 -0 -1 -1 1 0 0 -2 -5 -2 -3 -4 -2 -1 -1 -1 -2 -3 -1 0 1 -1 1 0 -3 -1 -0 -1 1 2 1 -2 -3 1 -1 2 3 3 2 -0 -2 1 4 2 2
-1 -1 -3 -0 0 0 -1 0 -0 -1 -1 -1 1 -1 -3 -5 -6 -1 -1 -1 -2 -1 -1 -1 -1 -1 -2 -1 -1 -3 -2 1 -0 -1 -2 -3 -0 -1 1 1 2 2 -1 4 3 2 0 3 -0 -1 -3 1 -2 0
1 -0 -3 1 0 1 -2 -2 -2 0 1 -2 -1 -1 -2 -2 -1 -2 -1 -0 -0 -1 -1 -1 -1 -1 -0 -3 -2 -0 0 0 -0 -2 -2 -4 -2 -6 1 1 2 1 0 3 4 4 5 5 3 1 -3 1 3 2
-1 0 -0 0 -0 -1 -1 1 0 -1 -1 -0 -1 -1 -2 -4 -3 -0 -2 -1 -1 -0 -1 -0 1 -1 -2 -3 -4 -2 6 3 1 1 -1 -2 -2 -1 2 3 3 2 1 5 5 3 12 15 6 2 4 3 1 -1
1 0 -1 -0 -0 -0 -0 0 -0 0 -2 -0 0 -0 -2 -5 -11 -7 -2 -0 0 -0 1 1 -0 -0 -2 -0 -0 -5 -12 3 1 2 2 -1 -2 -3 -1 2 4 4 5 2 5 7 -1 1 5 2 3 0 2 -1
1 0 -1 0 1 -0 -0 0 -0 -0 -0 0 -0 -0 -0 -0 -4 -2 -3 -1 -1 0 -1 -3 -3 -1 1 -0 0 2 0 -2 0 0 0 0 -2 -1 1 3 3 4 5 6 2 1 3 2 -2 -3 -3 2 4 -3
-1 -1 -0 -0 1 1 -0 -1 -0 -0 -0 -0 0 -0 -0 -1 -4 -0 -1 -1 -0 -1 -3 -2 -1 -1 -1 -2 -3 -1 1 2 1 2 1 0 1 0 0 -0 1 -0 -1 2 5 7 5 -0 -1 -0 3 3 -4 -4
Height
1469 1467 1464 1463 1461 1455 1453 1450 1445 1440 1438 1435 1432 1429 1427 1424 1422 1420 1420 1419 1419 1416 1414 1415 1415 1415 1417 1418 1421 1425 1427 1427 1430 1429 1428 1417 1409 1403 1404 1399 1405 1411 1417 1422 1426 1422 1409 1388 1382 1384 1384 1380 1381 1381
1465 1464 1461 1460 1458 1454 1451 1448 1443 1439 1435 1433 1429 1427 1425 1422 1420 1418 1418 1418 1417 1417 1416 1415 1415 1416 1417 1418 1420 1423 1424 1424 1426 1427 1427 1418 1409 1405 1399 1399 1402 1405 1399 1406 1407 1395 1383 1386 1386 1385 1385 1382 1381 1381
1461 1460 1457 1457 1455 1451 1448 1445 1440 1435 1433 1430 1428 1425 1423 1420 1419 1418 1418 1418 1418 1418 1416 1415 1416 1415 1416 1417 1419 1421 1422 1422 1423 1423 1421 1414 1410 1404 1399 1397 1395 1397 1398 1398 1398 1387 1385 1384 1385 1385 1384 1382 1381 1381
1457 1456 1454 1452 1450 1448 1446 1443 1437 1432 1430 1427 1424 1422 1419 1418 1417 1417 1416 1417 1419 1420 1418 1415 1414 1414 1414 1415 1416 1417 1417 1418 1420 1421 1420 1417 1408 1404 1398 1399 1397 1393 1396 1391 1390 1386 1384 1386 1386 1386 1385 1383 1381 1381
1454 1452 1450 1449 1446 1442 1442 1439 1434 1429 1425 1423 1419 1417 1416 1414 1413 1413 1414 1415 1418 1422 1418 1414 1413 1412 1412 1413 1412 1413 1415 1415 1417 1418 1418 1412 1411 1408 1401 1402 1394 1391 1388 1388 1385 1387 1387 1388 1387 1387 1387 1386 1384 1383
1450 1448 1446 1444 1442 1439 1437 1434 1430 1425 1421 1417 1413 1412 1411 1410 1411 1412 1414 1415 1416 1418 1418 1413 1412 1410 1411 1411 1411 1411 1412 1413 1414 1413 1411 1409 1405 1405 1397 1390 1385 1384 1385 1386 1385 1387 1387 1387 1387 1387 1387 1387 1386 1387
1447 1444 1443 1440 1439 1437 1433 1430 1426 1420 1415 1410 1407 1404 1404 1406 1408 1410 1411 1413 1415 1418 1419 1414 1410 1410 1410 1410 1410 1410 1410 1411 1412 1410 1408 1404 1403 1404 1399 1388 1380 1382 1383 1384 1385 1386 1387 1387 1388 1387 1388 1388 1389 1390
1443 1441 1439 1436 1435 1434 1430 1425 1422 1416 1410 1407 1404 1401 1401 1404 1407 1409 1411 1413 1415 1417 1418 1415 1412 1411 1410 1409 1409 1408 1408 1408 1408 1406 1404 1403 1402 1402 1394 1380 1380 1379 1381 1382 1383 1383 1384 1384 1386 1387 1389 1390 1391 1393
1439 1438 1435 1433 1432 1431 1427 1423 1418 1413 1409 1407 1405 1404 1404 1407 1409 1409 1411 1413 1415 1420 1416 1416 1413 1408 1409 1408 1407 1407 1406 1404 1405 1402 1401 1402 1396 1390 1377 1378 1377 1378 1379 1379 1380 1381 1383 1383 1385 1388 1389 1391 1393 1395
1436 1435 1432 1430 1429 1428 1424 1421 1416 1411 1408 1407 1407 1407 1409 1410 1410 1411 1412 1413 1416 1416 1414 1414 1411 1408 1410 1407 1405 1407 1405 1402 1402 1402 1401 1399 1388 1378 1375 1377 1379 1378 1378 1377 1378 1380 1381 1382 1384 1388 1390 1392 1395 1396
1432 1431 1429 1428 1428 1426 1422 1418 1415 1409 1408 1407 1406 1408 1409 1409 1411 1411 1411 1413 1414 1414 1411 1411 1411 1408 1409 1408 1405 1407 1405 1405 1400 1402 1400 1390 1380 1373 1374 1374 1373 1373 1375 1376 1376 1377 1378 1379 1383 1386 1390 1393 1396 1399
1429 1428 1426 1425 1424 1421 1419 1416 1413 1409 1407 1407 1406 1409 1410 1410 1411 1412 1412 1413 1413 1411 1411 1411 1410 1411 1409 1408 1408 1407 1405 1405 1400 1403 1400 1390 1375 1375 1374 1372 1370 1369 1370 1372 1374 1376 1377 1379 1382 1386 1388 1392 1396 1400
1426 1426 1424 1423 1422 1419 1416 1413 1411 1408 1408 1408 1408 1408 1408 1411 1410 1409 1409 1409 1411 1413 1413 1412 1411 1410 1409 1409 1408 1407 1406 1403 1404 1402 1394 1382 1376 1375 1373 1371 1369 1369 1370 1371 1373 1375 1377 1379 1381 1384 1388 1392 1396 1401
1423 1423 1422 1421 1419 1416 1415 1412 1409 1407 1409 1409 1408 1408 1408 1407 1408 1409 1410 1412 1414 1414 1413 1412 1411 1411 1409 1409 1408 1406 1404 1405 1401 1399 1389 1377 1379 1376 1374 1373 1371 1371 1371 1372 1373 1375 1376 1378 1381 1385 1389 1392 1396 1400
1420 1420 1419 1417 1416 1414 1412 1412 1408 1406 1408 1408 1409 1406 1408 1408 1409 1411 1411 1412 1413 1413 1412 1412 1411 1411 1410 1410 1408 1407 1404 1398 1393 1386 1383 1385 1382 1378 1376 1375 1373 1373 1372 1373 1374 1375 1377 1380 1382 1386 1390 1394 1398 1402
1417 1417 1415 1414 1414 1412 1410 1409 1406 1405 1408 1408 1409 1408 1408 1409 1409 1411 1411 1412 1413 1412 1411 1412 1411 1410 1407 1406 1407 1402 1400 1393 1388 1393 1391 1387 1384 1381 1379 1377 1375 1374 1374 1374 1374 1375 1377 1380 1383 1387 1391 1395 1399 1403
1414 1414 1412 1412 1411 1409 1408 1409 1405 1406 1407 1406 1406 1407 1407 1408 1409 1410 1411 1412 1412 1412 1411 1411 1408 1403 1408 1404 1403 1398 1395 1395 1396 1393 1391 1387 1384 1381 1379 1377 1376 1375 1374 1374 1375 1376 1377 1379 1382 1386 1390 1395 1400 1404
1410 1411 1411 1412 1409 1406 1406 1406 1404 1405 1406 1405 1405 1405 1407 1407 1409 1410 1411 1411 1412 1411 1411 1410 1412 1406 1400 1396 1390 1397 1398 1397 1395 1393 1390 1386 1383 1381 1379 1377 1376 1375 1375 1374 1374 1375 1377 1379 1382 1385 1389 1394 1399 1404
1407 1408 1410 1410 1407 1406 1407 1405 1402 1403 1404 1405 1405 1406 1406 1406 1407 1408 1409 1409 1411 1412 1412 1410 1407 1400 1397 1400 1401 1401 1400 1398 1395 1391 1388 1386 1383 1380 1379 1377 1376 1375 1375 1375 1376 1376 1378 1380 1380 1384 1388 1393 1398 1403
1404 1406 1408 1406 1405 1406 1406 1403 1401 1402 1403 1404 1405 1406 1405 1404 1405 1405 1406 1408 1410 1410 1410 1406 1400 1400 1400 1401 1400 1399 1398 1396 1394 1389 1386 1385 1382 1379 1378 1376 1375 1374 1374 1375 1376 1376 1377 1379 1382 1385 1389 1392 1397 1402
1401 1403 1404 1404 1404 1405 1404 1400 1399 1401 1401 1403 1404 1405 1404 1402 1402 1403 1404 1405 1408 1406 1401 1398 1397 1397 1398 1397 1397 1395 1393 1392 1391 1390 1385 1380 1380 1378 1376 1375 1374 1373 1373 1374 1374 1375 1377 1379 1382 1385 1388 1393 1398 1403
1398 1401 1402 1401 1401 1401 1401 1399 1398 1399 1401 1402 1403 1403 1402 1401 1400 1401 1402 1402 1400 1396 1396 1395 1395 1396 1394 1393 1392 1391 1389 1386 1384 1382 1381 1379 1376 1375 1373 1372 1371 1371 1371 1371 1372 1373 1375 1378 1381 1384 1388 1392 1398 1403
1397 1399 1400 1399 1400 1399 1400 1398 1397 1398 1400 1400 1401 1401 1400 1400 1399 1399 1398 1396 1393 1391 1391 1392 1393 1392 1391 1389 1387 1385 1383 1381 1379 1377 1376 1374 1372 1370 1368 1367 1367 1367 1368 1368 1369 1371 1373 1376 1379 1383 1387 1392 1397 1401
1393 1397 1397 1395 1396 1396 1397 1397 1395 1397 1398 1398 1398 1396 1396 1397 1397 1396 1393 1388 1386 1387 1388 1389 1389 1388 1387 1384 1382 1380 1378 1376 1373 1371 1370 1368 1365 1364 1364 1362 1361 1362 1363 1364 1366 1367 1370 1373 1376 1380 1384 1390 1394 1399
1393 1394 1394 1392 1392 1394 1394 1394 1394 1396 1394 1397 1396 1394 1395 1396 1394 1392 1388 1383 1381 1383 1385 1385 1385 1383 1381 1378 1376 1374 1373 1371 1367 1363 1363 1363 1360 1358 1356 1355 1355 1355 1356 1358 1360 1362 1364 1368 1372 1376 1382 1386 1392 1397
1385 1385 1386 1381 1385 1387 1385 1388 1391 1391 1391 1394 1394 1394 1394 1394 1394 1386 1381 1378 1379 1380 1381 1380 1380 1378 1376 1373 1369 1368 1366 1365 1362 1358 1356 1356 1354 1353 1350 1349 1348 1348 1350 1353 1355 1356 1359 1362 1367 1373 1379 1385 1391 1395
1377 1376 1377 1379 1379 1381 1383 1383 1384 1386 1388 1388 1388 1391 1392 1392 1386 1377 1373 1374 1375 1376 1376 1375 1373 1371 1368 1366 1364 1361 1359 1357 1355 1351 1349 1347 1346 1346 1345 1343 1343 1343 1343 1346 1349 1351 1353 1357 1361 1369 1375 1382 1389 1395
1369 1369 1371 1374 1377 1378 1379 1380 1381 1380 1379 1379 1382 1386 1384 1380 1374 1369 1369 1370 1371 1371 1370 1369 1367 1364 1362 1359 1356 1353 1351 1349 1346 1343 1340 1338 1337 1336 1336 1335 1336 1337 1339 1340 1343 1346 1349 1354 1359 1365 1372 1380 1385 1392
1364 1364 1368 1372 1374 1375 1374 1373 1371 1370 1371 1372 1374 1373 1371 1368 1366 1366 1367 1367 1366 1365 1364 1362 1360 1357 1355 1353 1350 1347 1345 1342 1339 1336 1334 1331 1331 1331 1330 1330 1330 1331 1333 1335 1337 1342 1346 1351 1357 1364 1372 1379 1386 1392
1359 1361 1364 1367 1368 1367 1365 1366 1366 1366 1368 1369 1368 1368 1365 1363 1363 1363 1362 1361 1360 1359 1357 1355 1353 1351 1348 1345 1342 1341 1340 1337 1334 1332 1328 1327 1326 1326 1326 1326 1326 1327 1329 1331 1333 1338 1344 1350 1355 1362 1370 1378 1385 1391
1354 1358 1360 1362 1362 1362 1362 1363 1364 1365 1366 1366 1365 1365 1363 1361 1358 1356 1355 1354 1353 1352 1351 1350 1348 1346 1343 1341 1337 1333 1329 1329 1327 1325 1323 1321 1320 1320 1320 1321 1322 1323 1324 1327 1331 1336 1338 1345 1352 1359 1368 1376 1383 1388
1353 1355 1357 1359 1361 1360 1361 1362 1363 1364 1364 1363 1362 1361 1360 1359 1356 1351 1348 1348 1348 1347 1347 1346 1344 1342 1340 1337 1334 1330 1326 1321 1318 1317 1316 1315 1315 1315 1316 1317 1318 1321 1323 1327 1330 1334 1339 1345 1353 1362 1369 1376 1382 1389
1353 1354 1356 1357 1358 1360 1361 1362 1363 1363 1362 1361 1360 1359 1358 1358 1353 1347 1345 1344 1345 1345 1345 1343 1341 1339 1336 1333 1330 1326 1323 1319 1315 1312 1311 1310 1310 1311 1313 1314 1317 1319 1323 1327 1331 1335 1340 1348 1355 1363 1371 1379 1385 1392